Regional Weather Roundup
Issued by NWS Green Bay, WI

Home | Current Version | Previous Version | Graphics & Text | Print | Product List | Glossary Off
Versions: 1 2 3 4 5 6 7 8 9 10 11 12 13 14 15 16 17 18 19 20 21 22 23 24 25 26 27 28 29 30 31 32 33 34 35 36 37 38 39 40 41 42 43 44 45 46 47 48 49 50

716
ASUS43 KGRB 281500
RWRGRB

NORTH-CENTRAL AND NORTHEAST WISCONSIN REGIONAL WEATHER ROUNDUP
NATIONAL WEATHER SERVICE GREEN BAY WI
1000 AM CDT SUN AUG 28 2016

WIZ005-009-010>012-018-019-281600-
NORTH CENTRAL WISCONSIN

CITY           SKY/WX    TMP DP  RH WIND       PRES   REMARKS
IRONWOOD       CLOUDY    64  60  87 SW7       30.22R
MANITOWISH WTR NOT AVBL
ARBOR VITAE    NOT AVBL
EAGLE RIVER    NOT AVBL
LAND O LAKES   NOT AVBL
RHINELANDER    CLOUDY    67  59  75 W3        30.23R
PHILLIPS       CLOUDY    64  60  86 CALM      30.22R
ANTIGO         NOT AVBL
TOMAHAWK       NOT AVBL
MERRILL        MOSUNNY   66  60  82 CALM      30.22S
$$

WIZ013-073-281600-
NORTHEAST WISCONSIN

CITY           SKY/WX    TMP DP  RH WIND       PRES   REMARKS
IRON MOUNTAIN  PTSUNNY   70  57  63 MISG      30.19R
MARINETTE        N/A    N/A N/A N/A NE3       30.20
$$

WIZ017-030-035>037-045-281600-
CENTRAL WISCONSIN

CITY           SKY/WX    TMP DP  RH WIND       PRES   REMARKS
MEDFORD        NOT AVBL
WAUSAU         MOSUNNY   67  60  78 S6        30.21R
MOSINEE        PTSUNNY   66  63  88 E3        30.24R
MARSHFIELD     CLOUDY    68  61  78 CALM      30.22R
WISC RAPIDS    CLOUDY    70  63  78 CALM      30.23S
STEVENS POINT  NOT AVBL
WAUPACA        NOT AVBL
SHAWANO        NOT AVBL
CLINTONVILLE   PTSUNNY   68  61  77 CALM      30.22R
WAUTOMA        PTSUNNY   70  65  84 S5        30.22F
$$

WIZ038-039-048-051-281600-
FOX VALLEY

CITY           SKY/WX    TMP DP  RH WIND       PRES   REMARKS
NWS GREEN BAY  PTSUNNY   68  65  90 SW3       30.22R
APPLETON       PTSUNNY   70  64  83 CALM      30.22R
OSHKOSH        PTSUNNY   72  64  76 NW5       30.23R
FOND DU LAC    PTSUNNY   71  64  78 CALM      30.23R
$$

WIZ022-050-052-281600-
EAST CENTRAL WISCONSIN

CITY           SKY/WX    TMP DP  RH WIND       PRES   REMARKS
EPHRAIM        NOT AVBL
WASHINGTON ISL NOT AVBL
STURGEON BAY   MOSUNNY   70  64  81 W6        30.21R
MANITOWOC      NOT AVBL
SHEBOYGAN      MOSUNNY   72  63  73 CALM      30.22R
$$

LMZ563-521-522-541>543-281600-
LAKESHORE

STATION/POSITION TIME  TEMP    WIND        PRES    VSBY  WAVE
                       AIR SEA DIR/SP/G                  HT/PER
                 (UTC) (F)     (DEG/KT/KT) (MB)    (MI)  (FT/S)
SHEBOYGAN LKSHOR 1400   69     130/  1/  1 1022.5R
KEWAUNEE LKSHORE 1400   67     290/  4/  6 1022.0R
NORTHPORT PIER   1400   71     250/  4/  9 1021.7R
N MID LAKE BUOY  1350   67 70  250/ 10/ 12 1020.8R         1/ 3
S GREEN BAY BUOY 1400   67 71  250/ 10/ 12 1021.6R
CHAMBERS ISLAND  1400   69     190/  4/  8 1022.0R
MENOMINEE LKSHOR 1400   68     240/  7/  9 1021.2R
$$




USA.gov is the U.S. government's official web portal to all federal, state and local government web resources and services.